FW8514 Weather Reports


time (UTC)temp
F
wind
direction
speed
knots
gust
knots
rain 1hr
in
rain 24hr
in
rain mn
in
humidity
%
barometer
mb
20260504151033 67 191 1.7 1.7 0.00 0.00 0.00 44 995.4
20260504150531 67 233 2.6 2.6 0.00 0.00 0.00 49 995.4
20260504140956 63 265 3.5 5.2 0.00 0.00 0.00 54 995.7
20260504140453 63 194 2.6 4.3 0.00 0.00 0.00 53 995.7
20260504130418 58 246 1.7 2.6 0.00 0.00 0.00 66 996.3
20260504110305 46 230 0.0 0.0 0.00 0.00 0.00 68 996.5
20260504100223 44 230 1.7 1.7 0.00 0.00 0.00 67 996.7
20260504081616 48 234 2.6 2.6 0.00 0.00 0.00 62 996.2
20260504081112 48 244 2.6 2.6 0.00 0.00 0.00 62 996.3
20260504080609 48 242 2.6 2.6 0.00 0.00 0.00 62 996.4
20260504080105 48 245 1.7 1.7 0.00 0.00 0.00 61 996.4
20260504050421 48 236 1.7 1.7 0.00 0.00 0.00 61 996.3
20260504045918 48 234 2.6 2.6 0.00 0.00 0.00 61 996.4
20260504045414 48 232 2.6 2.6 0.00 0.00 0.00 61 996.3
20260504044910 48 229 2.6 2.6 0.00 0.00 0.00 60 996.3
20260504044408 49 234 2.6 2.6 0.00 0.00 0.00 60 996.4
20260504043905 49 235 1.7 1.7 0.00 0.00 0.00 58 996.2
20260504043402 49 235 2.6 2.6 0.00 0.00 0.00 57 996.3
20260504042900 49 236 1.7 1.7 0.00 0.00 0.00 58 996.2
20260504042355 49 236 1.7 1.7 0.00 0.00 0.00 58 996.2
20260504041852 50 235 1.7 2.6 0.00 0.00 0.00 58 996.2
20260504041348 49 235 2.6 2.6 0.00 0.00 0.00 57 996.1
20260504040845 49 237 1.7 1.7 0.00 0.00 0.00 59 996.1
20260504040342 49 237 1.7 1.7 0.00 0.00 0.00 58 996.0
20260504035838 49 238 2.6 2.6 0.00 0.00 0.00 58 996.0
20260504035336 49 238 1.7 1.7 0.00 0.00 0.00 58 995.9
20260504034832 49 240 1.7 1.7 0.00 0.00 0.00 59 996.1
20260504034330 49 239 2.6 2.6 0.00 0.00 0.00 58 995.9
20260504033827 49 241 2.6 2.6 0.00 0.00 0.00 58 995.9
20260504033325 50 241 2.6 2.6 0.00 0.00 0.00 58 995.8
20260504032821 50 241 2.6 2.6 0.00 0.00 0.00 58 995.7
20260504032319 50 241 1.7 1.7 0.00 0.00 0.00 58 995.8
20260504031815 50 245 1.7 2.6 0.00 0.00 0.00 57 995.7
20260504031313 50 240 2.6 2.6 0.00 0.00 0.00 58 995.7
20260504030809 50 238 2.6 2.6 0.00 0.00 0.00 57 995.8
20260504030306 50 240 2.6 2.6 0.00 0.00 0.00 58 995.7
20260504025802 50 240 1.7 1.7 0.00 0.00 0.00 58 995.6
20260504025259 50 239 1.7 1.7 0.00 0.00 0.00 58 995.7
20260504024755 50 238 2.6 4.3 0.00 0.00 0.00 56 995.6
20260504024252 50 239 2.6 2.6 0.00 0.00 0.00 56 995.7
20260504023749 50 238 2.6 2.6 0.00 0.00 0.00 56 995.7
20260504023246 50 237 2.6 2.6 0.00 0.00 0.00 57 995.8
20260504022741 50 237 1.7 1.7 0.00 0.00 0.00 57 995.8
20260504022238 51 236 1.7 1.7 0.00 0.00 0.00 54 995.7
20260504021735 51 235 2.6 2.6 0.00 0.00 0.00 54 995.8
20260504021232 52 234 2.6 2.6 0.00 0.00 0.00 52 995.7
20260504020729 52 238 2.6 2.6 0.00 0.00 0.00 53 995.9
20260504020226 52 239 2.6 2.6 0.00 0.00 0.00 52 995.8
20260504015722 52 238 2.6 2.6 0.00 0.00 0.00 52 995.6
20260504015218 52 239 2.6 2.6 0.00 0.00 0.00 52 995.8
20260504014714 53 241 2.6 2.6 0.00 0.00 0.00 52 995.5
20260504014211 53 242 2.6 2.6 0.00 0.00 0.00 52 995.4
20260504013709 53 240 2.6 4.3 0.00 0.00 0.00 51 995.7
20260504013206 53 237 0.9 1.7 0.00 0.00 0.00 52 995.4
20260504012703 53 242 2.6 2.6 0.00 0.00 0.00 52 995.6
20260504012201 53 242 0.9 1.7 0.00 0.00 0.00 52 995.5
20260504011657 53 241 0.9 1.7 0.00 0.00 0.00 53 995.3
20260504011154 53 239 1.7 1.7 0.00 0.00 0.00 52 995.2
20260504010650 54 240 1.7 1.7 0.00 0.00 0.00 51 995.4
20260504010145 54 237 1.7 1.7 0.00 0.00 0.00 49 995.2
20260504005643 53 246 1.7 2.6 0.00 0.00 0.00 51 995.5
20260504005139 54 241 1.7 2.6 0.00 0.00 0.00 51 995.2
20260504004638 54 239 1.7 1.7 0.00 0.00 0.00 51 995.1
20260504004134 54 241 1.7 1.7 0.00 0.00 0.00 50 995.2
20260504003631 54 238 2.6 2.6 0.00 0.00 0.00 49 994.9
20260504003127 54 245 1.7 2.6 0.00 0.00 0.00 48 994.9
20260504002624 55 240 1.7 1.7 0.00 0.00 0.00 49 994.7
20260504002122 55 240 1.7 2.6 0.00 0.00 0.00 47 994.7
20260504001619 55 242 1.7 1.7 0.00 0.00 0.00 47 994.5
20260504001115 55 239 1.7 1.7 0.00 0.00 0.00 47 994.5
20260504000613 55 241 1.7 1.7 0.00 0.00 0.00 48 994.7
20260504000110 55 242 0.9 0.9 0.00 0.00 0.00 48 994.3
20260503235608 56 244 0.9 0.9 0.00 0.00 0.00 48 994.5
20260503235105 56 245 0.9 2.6 0.00 0.00 0.00 47 994.4
20260503234603 57 249 0.9 0.9 0.00 0.00 0.00 47 994.2
20260503234100 57 255 0.9 1.7 0.00 0.00 0.00 47 994.2
20260503233556 57 249 0.9 0.9 0.00 0.00 0.00 45 994.3
20260503233052 57 237 1.7 1.7 0.00 0.00 0.00 46 994.2
20260503232550 58 267 0.9 0.9 0.00 0.00 0.00 45 994.4
20260503232047 58 255 2.6 2.6 0.00 0.00 0.00 42 994.2
20260503231545 58 310 0.9 0.9 0.00 0.00 0.00 44 994.1
20260503231041 58 282 1.7 1.7 0.00 0.00 0.00 43 994.3
20260503230538 58 262 0.9 1.7 0.00 0.00 0.00 42 994.1
20260503230036 58 287 2.6 4.3 0.00 0.00 0.00 44 994.0
20260503225532 59 285 0.9 0.9 0.00 0.00 0.00 45 993.8
20260503225027 59 278 0.9 1.7 0.00 0.00 0.00 43 994.1
20260503224525 59 310 0.9 1.7 0.00 0.00 0.00 42 994.0
20260503224023 59 275 2.6 4.3 0.00 0.00 0.00 41 994.0
20260503223520 59 246 1.7 2.6 0.00 0.00 0.00 43 994.2
20260503223016 59 303 3.5 5.2 0.00 0.00 0.00 41 994.0
20260503222514 59 268 1.7 1.7 0.00 0.00 0.00 44 994.2
20260503222012 59 318 0.9 1.7 0.00 0.00 0.00 42 994.2
20260503221510 59 286 0.0 0.9 0.00 0.00 0.00 43 994.0
20260503221007 60 340 3.5 4.3 0.00 0.00 0.00 40 994.2
20260503220503 60 256 1.7 1.7 0.00 0.00 0.00 40 993.9
20260503220000 60 318 1.7 1.7 0.00 0.00 0.00 40 994.2
20260503215457 61 260 2.6 4.3 0.00 0.00 0.00 41 994.2
20260503214954 61 357 1.7 1.7 0.00 0.00 0.00 38 994.0
20260503214452 60 267 0.9 1.7 0.00 0.00 0.00 38 994.1
20260503213949 61 251 2.6 4.3 0.00 0.00 0.00 40 994.1
20260503213447 61 245 2.6 4.3 0.00 0.00 0.00 38 994.0
20260503212943 60 338 0.9 1.7 0.00 0.00 0.00 38 993.9
20260503212441 60 293 2.6 2.6 0.00 0.00 0.00 37 993.9
20260503211938 60 291 2.6 2.6 0.00 0.00 0.00 38 993.8
20260503211435 61 261 4.3 5.2 0.00 0.00 0.00 40 993.9
20260503210930 61 292 2.6 2.6 0.00 0.00 0.00 37 994.0
20260503210427 61 318 2.6 2.6 0.00 0.00 0.00 37 994.1
20260503205922 61 310 0.9 1.7 0.00 0.00 0.00 37 994.1
20260503205420 61 311 3.5 4.3 0.00 0.00 0.00 36 993.9
20260503204916 61 316 2.6 4.3 0.00 0.00 0.00 38 994.0
20260503204413 61 271 2.6 2.6 0.00 0.00 0.00 37 994.1
20260503203910 61 260 1.7 2.6 0.00 0.00 0.00 36 993.9
20260503203408 62 320 2.6 2.6 0.00 0.00 0.00 37 994.1
20260503202904 62 243 1.7 2.6 0.00 0.00 0.00 36 994.3
20260503202403 62 320 0.9 0.9 0.00 0.00 0.00 36 994.2
20260503201901 63 326 2.6 4.3 0.00 0.00 0.00 39 994.3
20260503201357 62 287 1.7 1.7 0.00 0.00 0.00 37 994.3
20260503200855 63 203 2.6 2.6 0.00 0.00 0.00 39 994.3
20260503200350 62 355 2.6 5.2 0.00 0.00 0.00 37 994.5
20260503195848 62 261 1.7 2.6 0.00 0.00 0.00 37 994.3
20260503195344 62 283 1.7 2.6 0.00 0.00 0.00 38 994.3
20260503194842 61 332 1.7 2.6 0.00 0.00 0.00 38 994.4
20260503194337 60 337 4.3 5.2 0.00 0.00 0.00 38 994.7
20260503193834 60 308 2.6 2.6 0.00 0.00 0.00 39 994.7
20260503193330 61 286 2.6 2.6 0.00 0.00 0.00 39 995.0
20260503192826 60 307 4.3 5.2 0.00 0.00 0.00 39 994.9
20260503192321 60 332 4.3 5.2 0.00 0.00 0.00 40 994.7
20260503191818 60 328 2.6 2.6 0.00 0.00 0.00 39 994.9
20260503191315 59 288 2.6 5.2 0.00 0.00 0.00 40 994.8
20260503190812 59 306 1.7 2.6 0.00 0.00 0.00 40 995.0
20260503190309 60 338 1.7 4.3 0.00 0.00 0.00 40 994.8
20260503185806 61 314 1.7 1.7 0.00 0.00 0.00 38 995.2
20260503185304 59 255 0.9 1.7 0.00 0.00 0.00 41 995.1
20260503184801 59 288 2.6 2.6 0.00 0.00 0.00 41 995.3
20260503184258 59 300 0.9 1.7 0.00 0.00 0.00 39 995.2
20260503183754 61 320 2.6 2.6 0.00 0.00 0.00 37 995.3
20260503183252 60 286 1.7 2.6 0.00 0.00 0.00 39 995.2
20260503182749 60 46 4.3 7.8 0.00 0.00 0.00 40 995.3
20260503182248 60 333 2.6 2.6 0.00 0.00 0.00 42 995.4
20260503181744 60 316 1.7 2.6 0.00 0.00 0.00 39 995.6
20260503181241 59 307 1.7 2.6 0.00 0.00 0.00 40 995.4
20260503180738 59 319 1.7 1.7 0.00 0.00 0.00 41 995.3
20260503180236 59 264 4.3 6.1 0.00 0.00 0.00 41 995.6
20260503175732 60 248 1.7 1.7 0.00 0.00 0.00 41 995.4
20260503175230 59 315 2.6 2.6 0.00 0.00 0.00 38 995.5
20260503174726 59 307 2.6 2.6 0.00 0.00 0.00 42 995.3
20260503174224 59 312 4.3 5.2 0.00 0.00 0.00 40 995.5
20260503173719 59 8 4.3 6.1 0.00 0.00 0.00 41 995.5
20260503173215 59 350 0.9 1.7 0.00 0.00 0.00 43 995.6
20260503172712 59 325 2.6 2.6 0.00 0.00 0.00 39 995.4
20260503172209 58 232 1.7 2.6 0.00 0.00 0.00 42 995.7
20260503171706 58 261 0.9 0.9 0.00 0.00 0.00 41 995.8
20260503171203 59 291 4.3 6.1 0.00 0.00 0.00 43 995.6
20260503170700 59 342 4.3 7.0 0.00 0.00 0.00 40 995.6
20260503170156 58 334 0.9 2.6 0.00 0.00 0.00 41 995.7